Waarnemingen

Advertentie
Mijn weer
Luxeuil, Frankrijk (7292): temperatuur & dauwpunt: 11.07.2019 00:00:00 - 17.07.2019 00:00:00 (CEST)Luxeuil, Frankrijk (7292): temperatuur 5cm: 11.07.2019 00:00:00 - 17.07.2019 00:00:00 (CEST)Luxeuil, Frankrijk (7292): temperatuur -20cm & temperatuur -100cm: 11.07.2019 00:00:00 - 17.07.2019 00:00:00 (CEST)Luxeuil, Frankrijk (7292): windsnelheid & windstoten: 11.07.2019 00:00:00 - 17.07.2019 00:00:00 (CEST)Luxeuil, Frankrijk (7292): windrichting: 11.07.2019 00:00:00 - 17.07.2019 00:00:00 (CEST)Luxeuil, Frankrijk (7292): luchtdruk: 11.07.2019 00:00:00 - 17.07.2019 00:00:00 (CEST)Luxeuil, Frankrijk (7292): zicht: 11.07.2019 00:00:00 - 17.07.2019 00:00:00 (CEST)Luxeuil, Frankrijk (7292): Zonneschijnduur: 11.07.2019 00:00:00 - 17.07.2019 00:00:00 (CEST)Luxeuil, Frankrijk (7292): neerslag: 11.07.2019 00:00:00 - 17.07.2019 00:00:00 (CEST)
Datum & Tijd tt [°C] td [°C] tt 5cm [°C] tt -20cm [°C] tt -100cm [°C] ff [km/u] ff [kn] fx [km/u] fx [kn] dd ppp [hPa] vv [km] sd [min] rr [mm]
17.07.2019 00:00:00 15,6 13,8 13,5 24,2 20,8 5 3 6 3 WNW 1016,1 4,4 0 0,0
16.07.2019 23:00:00 17,5 14,2 15,3 24,2 20,8 0 0 24 13 N 1015,6 26 0 0,0
16.07.2019 22:00:00 19,9 15,3 18,3 24,1 20,8 0 0 6 4 N 1015,0 38 0 0,0
16.07.2019 21:00:00 24,7 11,3 23,0 24,0 20,8 3 1 9 5 NNW 1014,4 60 53 0,0
16.07.2019 20:00:00 25,9 11,6 28,0 23,6 20,8 6 3 13 7 NNW 1014,3 60 60 0,0
16.07.2019 19:00:00 26,3 9,2 28,5 23,1 20,9 9 5 18 10 W 1014,3 55 30 0,0
16.07.2019 18:00:00 27,4 8,8 32,1 22,6 20,9 7 4 17 9 W 1014,4 60 60 0,0
16.07.2019 17:00:00 27,7 9,5 33,5 22,0 20,9 7 4 35 19 W 1014,6 58 60 0,0
16.07.2019 16:00:00 26,9 7,9 33,4 21,5 20,9 6 3 20 11 W 1015,0 48 60 0,0
16.07.2019 15:00:00 26,0 8,9 32,6 20,9 20,8 6 4 22 12 WZW 1015,2 55 60 0,0
16.07.2019 14:00:00 25,1 10,5 31,1 20,6 20,9 6 3 18 10 NNO 1015,8 20 60 0,0
16.07.2019 13:00:00 24,0 12,3 29,2 20,3 20,9 6 3 18 10 ZZW 1016,3 58 60 0,0
16.07.2019 12:00:00 22,6 12,2 26,7 20,2 20,9 7 4 18 10 WNW 1016,9 48 60 0,0
16.07.2019 11:00:00 20,1 12,6 24,2 20,2 20,9 7 4 15 8 NNW 1017,4 20 60 0,0
16.07.2019 10:00:00 18,7 12,9 20,8 20,3 20,9 6 3 16 9 ZW 1017,9 18 60 0,0
16.07.2019 09:00:00 15,6 12,3 18,9 20,5 20,9 6 3 11 6 ZZO 1018,3 16 60 0,0
16.07.2019 08:00:00 14,0 11,9 10,8 20,8 21,0 2 1 5 3 W 1018,5 19 60 0,2
16.07.2019 07:00:00 10,4 9,6 8,2 21,0 21,0 3 1 4 2 WNW 1018,7 17 41 0,0
16.07.2019 06:00:00 9,2 8,4 8,1 21,3 21,0 3 1 7 4 OZO 1018,7 0,5 0 0,0
16.07.2019 05:00:00 9,7 9,2 8,4 21,5 21,0 5 3 7 4 ZO 1018,5 14 0 0,0
16.07.2019 04:00:00 10,3 9,7 9,1 21,8 21,0 4 2 5 3 ZO 1018,3 15 0 0,0
16.07.2019 03:00:00 11,0 10,4 9,7 22,0 21,0 3 1 5 3 ZO 1018,3 14 0 0,0
16.07.2019 02:00:00 12,7 11,4 10,8 22,2 21,0 4 2 9 5 ONO 1018,0 40 0 0,0
16.07.2019 01:00:00 12,7 11,4 11,4 22,3 21,0 3 1 8 4 ZW 1018,0 40 0 0,0
16.07.2019 00:00:00 14,3 11,4 12,0 22,4 21,0 8 4 11 6 NW 1017,7 34 0 0,0
15.07.2019 23:00:00 15,7 11,5 13,5 22,5 21,0 4 2 12 7 Z 1017,2 60 0 0,0
15.07.2019 22:00:00 20,2 10,6 18,0 22,5 21,0 7 4 22 12 N 1016,1 60 0 0,0
15.07.2019 21:00:00 22,2 10,7 21,3 22,4 21,0 11 6 22 12 N 1015,4 57 56 0,0
15.07.2019 20:00:00 23,8 10,8 25,4 22,2 21,0 13 7 24 13 N 1014,9 45 49 0,0
15.07.2019 19:00:00 25,1 10,9 25,1 22,0 21,1 13 7 25 13 N 1014,4 60 15 0,0
15.07.2019 18:00:00 24,0 10,6 25,6 21,7 21,1 11 6 24 13 NNO 1014,6 60 0 0,0
15.07.2019 17:00:00 24,3 10,2 26,4 21,4 21,1 11 6 29 15 N 1014,7 60 37 0,0
15.07.2019 16:00:00 24,2 10,5 26,2 21,1 21,1 12 7 28 15 NNO 1014,7 53 9 0,0
15.07.2019 15:00:00 23,7 11,1 25,8 20,8 21,1 14 8 30 16 N 1014,6 38 20 0,0
15.07.2019 14:00:00 22,8 11,8 25,3 20,5 21,1 13 7 31 17 NNW 1014,9 56 19 0,0
15.07.2019 13:00:00 22,5 12,1 27,0 20,3 21,1 14 8 28 15 NNW 1015,1 52 53 0,0
15.07.2019 12:00:00 21,6 12,2 26,1 20,2 21,2 13 7 27 15 NNO 1015,4 60 60 0,0
15.07.2019 11:00:00 20,2 12,2 24,0 20,2 21,2 14 7 29 16 N 1015,7 60 60 0,0
15.07.2019 10:00:00 18,6 10,7 22,3 20,2 21,2 16 9 33 18 NNO 1015,7 55 60 0,0
15.07.2019 09:00:00 17,3 11,8 19,8 20,4 21,1 11 6 21 11 N 1015,7 59 60 0,0
15.07.2019 08:00:00 15,5 10,5 15,0 20,5 21,1 8 4 16 9 NW 1015,9 43 48 0,0
15.07.2019 07:00:00 14,5 10,1 14,2 20,7 21,2 11 6 22 12 N 1015,6 39 13 0,0
15.07.2019 06:00:00 14,6 10,4 14,3 20,8 21,2 11 6 20 11 N 1015,7 60 0 0,0
15.07.2019 05:00:00 14,6 11,2 14,4 20,9 21,2 10 5 23 12 NNO 1015,5 50 0 0,0
15.07.2019 04:00:00 14,8 11,6 14,3 21,1 21,2 12 6 19 11 N 1015,5 34 0 0,0
15.07.2019 03:00:00 15,1 12,0 14,3 21,2 21,2 5 3 15 8 NW 1016,0 35 0 0,0
15.07.2019 02:00:00 15,2 12,3 14,0 21,4 21,2 9 5 16 9 N 1016,3 35 0 0,0
15.07.2019 01:00:00 14,8 12,8 13,8 21,5 21,2 4 2 9 5 NNW 1016,6 39 0 0,0
15.07.2019 00:00:00 14,4 12,9 13,1 21,7 21,2 7 4 11 6 N 1016,4 16 0 0,0
14.07.2019 23:00:00 14,1 13,1 13,3 21,7 21,2 4 2 11 6 NO 1016,5 20 0 0,0
14.07.2019 22:00:00 15,7 13,9 14,6 21,9 21,2 6 4 11 6 NNO 1016,2 40 3 0,0
14.07.2019 21:00:00 17,1 13,6 16,9 22,0 21,2 5 3 18 10 N 1015,6 60 17 0,0
14.07.2019 20:00:00 17,2 14,5 17,3 22,1 21,2 10 5 18 10 ZO 1015,6 47 0 0,2
14.07.2019 19:00:00 16,8 14,6 17,1 22,3 21,2 8 4 23 12 ZZO 1015,5 43 0 0,0
14.07.2019 18:00:00 16,9 13,6 15,9 22,4 21,2 14 8 26 14 NO 1014,9 26 1 0,0
14.07.2019 17:00:00 16,3 13,8 14,6 22,5 21,2 10 5 17 9 NNO 1015,6 32 0 0,4
14.07.2019 16:00:00 15,4 13,6 14,3 22,6 21,2 13 7 29 15 NNO 1016,0 10 0 4,6
14.07.2019 15:00:00 15,3 13,5 13,8 22,6 21,2 23 12 46 25 NO 1015,9 1,3 0 15,3
14.07.2019 14:00:00 20,8 13,2 20,5 22,5 21,2 20 11 36 19 NNW 1014,4 41 0 0,0
14.07.2019 13:00:00 21,5 11,8 23,1 22,3 21,2 15 8 30 16 NNW 1014,5 50 1 0,0
14.07.2019 12:00:00 22,2 13,3 23,9 22,2 21,2 15 8 30 16 NNW 1014,7 48 15 0,0
14.07.2019 11:00:00 22,0 12,5 23,1 22,3 21,2 12 7 24 13 NNW 1015,0 54 50 0,0
14.07.2019 10:00:00 20,4 13,6 23,6 22,4 21,2 8 4 15 8 N 1015,7 46 60 0,0
14.07.2019 09:00:00 17,6 12,5 19,0 22,6 21,2 3 2 9 5 Z 1016,2 20 60 0,0
14.07.2019 08:00:00 14,1 12,0 12,0 22,8 21,2 3 2 6 3 WNW 1016,3 25 60 0,0
14.07.2019 07:00:00 10,5 9,7 8,6 23,1 21,3 0 0 4 2 N 1016,8 14 43 0,0
14.07.2019 06:00:00 9,9 9,4 7,9 23,3 21,3 0 0 5 3 N 1017,1 6 0 0,0
14.07.2019 05:00:00 10,8 9,7 9,4 23,5 21,2 0 0 7 4 N 1017,2 17 0 0,0
14.07.2019 04:00:00 11,6 9,8 9,5 23,8 21,3 2 1 4 2 NW 1017,7 29 0 0,0
14.07.2019 03:00:00 10,6 9,8 8,7 24,0 21,3 3 1 6 4 ZZW 1018,1 13 0 0,0
14.07.2019 02:00:00 12,6 9,6 10,0 24,2 21,3 5 3 8 4 W 1017,9 28 0 0,0
14.07.2019 01:00:00 13,1 11,0 11,0 24,4 21,3 5 3 10 6 O 1018,1 37 0 0,0
14.07.2019 00:00:00 14,1 11,3 12,0 24,6 21,3 0 0 9 5 N 1018,4 37 0 0,0
13.07.2019 23:00:00 15,4 11,0 13,7 24,6 21,3 3 1 10 5 ZW 1018,4 47 0 0,0
13.07.2019 22:00:00 17,4 11,4 15,7 24,5 21,3 6 3 9 5 N 1018,2 44 3 0,0
13.07.2019 21:00:00 20,4 10,8 20,3 24,5 21,3 6 3 18 10 N 1017,6 60 21 0,0
13.07.2019 20:00:00 21,6 10,7 22,8 24,3 21,3 11 6 24 13 N 1017,3 60 7 0,0
13.07.2019 19:00:00 22,2 10,7 25,1 24,1 21,3 13 7 26 14 NNW 1017,3 58 46 0,0
13.07.2019 18:00:00 22,8 10,2 24,5 23,9 21,3 15 8 24 13 NNW 1017,2 55 18 0,0
13.07.2019 17:00:00 22,3 9,8 24,5 23,6 21,3 14 8 25 14 N 1017,5 57 17 0,0
13.07.2019 16:00:00 22,5 10,6 25,8 23,3 21,3 11 6 26 14 NNO 1017,6 54 8 0,0
13.07.2019 15:00:00 22,1 10,6 23,8 23,1 21,3 10 5 24 13 N 1017,8 48 20 0,0
13.07.2019 14:00:00 22,8 9,6 27,4 22,9 21,3 11 6 36 19 N 1018,1 57 45 0,0
13.07.2019 13:00:00 21,3 9,8 24,0 22,8 21,3 12 6 25 14 N 1018,4 58 27 0,0
13.07.2019 12:00:00 20,9 12,1 22,8 22,8 21,3 11 6 22 12 NW 1018,4 40 24 0,0
13.07.2019 11:00:00 19,7 11,5 22,8 22,8 21,3 13 7 21 12 NNW 1018,7 37 30 0,0
13.07.2019 10:00:00 19,4 12,6 21,6 22,9 21,3 9 5 18 10 NW 1018,5 53 60 0,0
13.07.2019 09:00:00 16,4 13,7 18,7 23,1 21,3 6 3 9 5 W 1018,8 26 60 0,0
13.07.2019 08:00:00 15,4 12,7 13,5 23,3 21,3 2 1 7 4 NNO 1018,5 0,3 57 0,0
13.07.2019 07:00:00 12,6 11,3 12,4 23,6 21,3 5 3 8 4 WZW 1018,5 3,7 38 0,0
13.07.2019 06:00:00 12,3 11,8 10,8 23,8 21,3 0 0 3 2 N 1018,0 0,3 0 0,0
13.07.2019 05:00:00 13,2 12,6 10,5 24,0 21,4 3 1 5 3 N 1017,8 28 0 0,2
13.07.2019 04:00:00 12,9 12,3 11,2 24,2 21,3 3 2 7 4 Z 1017,5 12 0 0,0
13.07.2019 03:00:00 14,8 13,3 13,5 24,3 21,3 2 1 10 5 Z 1017,0 45 0 0,0
13.07.2019 02:00:00 15,5 13,3 15,4 24,5 21,4 8 4 13 7 NNW 1016,7 60 0 0,0
13.07.2019 01:00:00 16,9 13,4 16,8 24,6 21,4 4 2 12 6 W 1016,7 60 0 0,0
13.07.2019 00:00:00 17,4 13,5 15,7 24,6 21,4 4 2 39 21 N 1016,6 60 0 0,0
12.07.2019 23:00:00 20,6 11,5 18,3 24,7 21,4 22 12 44 24 N 1015,0 60 0 0,0
12.07.2019 22:00:00 20,3 11,0 18,6 24,6 21,4 5 3 11 6 WZW 1014,2 54 4 0,0
12.07.2019 21:00:00 22,9 10,7 22,5 24,5 21,4 8 4 29 16 WNW 1013,4 60 7 0,0
12.07.2019 20:00:00 24,4 10,3 25,1 24,3 21,4 18 10 35 19 NW 1012,8 51 33 0,0
12.07.2019 19:00:00 25,8 10,0 26,5 24,1 21,4 19 10 35 19 NW 1012,2 44 52 0,0
12.07.2019 18:00:00 26,1 11,1 27,3 23,9 21,4 20 11 39 21 WNW 1012,1 45 32 0,0
12.07.2019 17:00:00 26,9 12,2 28,1 23,6 21,4 21 11 38 21 WNW 1012,3 38 38 0,0
12.07.2019 16:00:00 26,6 12,6 27,0 23,4 21,4 24 13 42 23 W 1012,4 41 30 0,0
12.07.2019 15:00:00 26,2 12,3 26,9 23,1 21,4 21 11 35 19 W 1012,5 60 13 0,0
12.07.2019 14:00:00 25,5 12,0 26,6 22,9 21,4 19 10 36 19 W 1012,7 60 14 0,0
12.07.2019 13:00:00 25,2 13,1 28,6 22,6 21,4 16 9 42 23 W 1012,9 56 36 0,0
12.07.2019 12:00:00 24,5 13,7 29,1 22,6 21,4 9 5 32 18 WNW 1013,3 56 58 0,0
12.07.2019 11:00:00 23,0 13,7 26,3 22,6 21,5 11 6 23 12 W 1013,3 55 58 0,0
12.07.2019 10:00:00 21,0 12,2 20,0 22,6 21,4 12 7 25 14 WZW 1013,7 45 37 0,0
12.07.2019 09:00:00 18,7 11,7 18,9 22,8 21,4 5 3 10 6 Z 1014,0 60 0 0,0
12.07.2019 08:00:00 17,7 11,9 15,7 22,9 21,4 8 4 12 7 ONO 1013,6 59 31 0,0
12.07.2019 07:00:00 15,2 12,1 14,3 23,1 21,5 9 5 14 7 O 1013,8 44 0 0,0
12.07.2019 06:00:00 14,3 11,6 14,1 23,2 21,5 10 5 14 8 O 1013,7 60 0 0,0
12.07.2019 05:00:00 15,0 11,9 14,9 23,4 21,5 8 5 15 8 O 1013,6 60 0 0,0
12.07.2019 04:00:00 15,2 12,1 14,8 23,5 21,4 9 5 16 8 O 1014,0 60 0 0,0
12.07.2019 03:00:00 15,0 11,9 14,5 23,7 21,5 11 6 16 8 O 1014,0 60 0 0,0
12.07.2019 02:00:00 15,7 12,1 15,2 23,8 21,4 7 4 10 5 ONO 1014,2 60 0 0,0
12.07.2019 01:00:00 16,0 12,5 14,8 23,9 21,4 8 4 8 5 O 1014,7 60 0 0,0
12.07.2019 00:00:00 16,4 13,1 16,2 24,0 21,5 7 4 12 7 OZO 1015,1 60 0 0,0
11.07.2019 23:00:00 17,3 12,6 15,6 24,0 21,5 10 5 13 7 O 1015,0 60 0 0,0
11.07.2019 22:00:00 18,3 12,3 17,5 24,0 21,4 10 5 12 7 OZO 1014,7 60 1 0,0
11.07.2019 21:00:00 19,9 11,4 19,1 23,9 21,5 8 5 22 12 ZO 1014,4 60 2 0,0
11.07.2019 20:00:00 21,3 11,0 21,9 23,7 21,5 13 7 18 10 ZZO 1014,3 60 1 0,0
11.07.2019 19:00:00 22,4 10,5 25,0 23,6 21,4 10 5 16 9 ZZW 1014,3 60 49 0,0
11.07.2019 18:00:00 22,4 10,2 26,0 23,6 21,5 4 2 14 8 ZO 1014,5 60 48 0,0
11.07.2019 17:00:00 22,1 11,5 23,8 23,5 21,5 8 5 17 9 ZZW 1014,7 57 12 0,0
11.07.2019 16:00:00 20,9 11,5 22,2 23,5 21,4 7 4 16 8 Z 1014,8 60 0 0,0
11.07.2019 15:00:00 20,3 12,8 20,3 23,5 21,5 5 3 15 8 ZZO 1014,4 58 0 0,0
11.07.2019 14:00:00 19,7 14,1 21,2 23,6 21,4 6 4 14 8 ZZO 1014,6 53 0 0,0
11.07.2019 13:00:00 19,7 13,6 18,9 23,6 21,5 3 2 8 4 N 1015,0 59 0 0,0
11.07.2019 12:00:00 17,6 13,3 16,8 23,8 21,5 3 1 11 6 W 1015,8 52 0 0,0
11.07.2019 11:00:00 16,9 12,2 15,5 23,9 21,5 4 2 18 10 W 1015,6 40 0 0,4
11.07.2019 10:00:00 16,6 10,4 17,2 24,1 21,5 4 2 11 6 ZO 1015,0 60 0 0,0
11.07.2019 09:00:00 15,4 8,6 14,8 24,3 21,4 0 0 6 3 N 1015,5 60 0 0,0
11.07.2019 08:00:00 13,2 9,8 12,3 24,6 21,5 4 2 6 3 OZO 1015,4 60 0 0,0
11.07.2019 07:00:00 11,6 9,8 10,3 24,9 21,5 0 0 5 3 N 1015,9 52 0 0,0
11.07.2019 06:00:00 10,9 9,3 9,8 25,1 21,5 5 3 6 3 NW 1015,8 59 0 0,0
11.07.2019 05:00:00 13,3 7,7 11,2 25,4 21,5 2 1 4 2 W 1015,5 60 0 0,0
11.07.2019 04:00:00 13,9 7,9 12,8 25,6 21,4 0 0 4 2 N 1015,6 60 0 0,0
11.07.2019 03:00:00 14,4 8,3 13,1 25,8 21,4 0 0 5 3 N 1016,2 60 0 0,0
11.07.2019 02:00:00 15,0 8,5 13,9 26,1 21,5 2 1 11 6 ONO 1016,5 60 0 0,0
11.07.2019 01:00:00 13,7 9,3 13,3 26,3 21,5 8 5 10 6 ZO 1017,0 60 0 0,0
11.07.2019 00:00:00 14,9 8,8 13,7 26,5 21,5 5 3 9 5 ZO 1017,3 60 0 0,0

tt = temperatuur
td = dauwpunt
tt 5cm = temperatuur 5cm
tt -20cm = temperatuur -20cm
tt -100cm = temperatuur -100cm
ff = windsnelheid
fx = windstoten
dd = windrichting
ppp = luchtdruk
vv = zicht
sd = Zonneschijnduur
rr = neerslag

Weerstations in de omgeving